User: anonymous   Login
Location: Unspecified
(0.0000°N, 0.0000°E)
Time: 12:42:40
(UTC+00:00)
Language:

Italsat 1 - Orbit

View from above orbital plane
View from above orbital plane
View from above satellite
View from above satellite

Ground track
Ground track

The orbit data is extracted from the following two-line orbital elements,

1 21055U 91003A   18200.74332265 -.00000104  00000-0  00000+0 0  9994
2 21055  14.8325  15.7503 0014425 336.7757  25.2701  0.99977811 88300
Epoch (UTC): 19 July 2018 17:50:23
Eccentricity: 0.0014425
inclination: 14.8325°
perigee height: 35808 km
apogee height: 35930 km
right ascension of ascending node: 15.7503°
argument of perigee: 336.7757°
revolutions per day: 0.99977811
mean anomaly at epoch: 25.2701°
orbit number at epoch: 8830

The dashed part of the orbit path shows where the satellite is in the earth's shadow,  

DLR